User: anonymous   Login
Location: Columbia
(38.9520°N, 92.3340°W)
Time: 22:47:41
(UTC-05:00)
Language:

Iridium 52 - Orbit

View from above orbital plane
View from above orbital plane
View from above satellite
View from above satellite

Ground track
Ground track

The orbit data is extracted from the following two-line orbital elements,

1 25169U 98010A   14295.40469575  .00000812  00000-0  28270-3 0  7308
2 25169 086.3998 035.3053 0002267 111.0374 292.0069 14.34216710872926
Epoch (UTC): 22 October 2014 09:42:45
Eccentricity: 0.0002267
inclination: 86.3998°
perigee height: 776 km
apogee height: 779 km
right ascension of ascending node: 35.3053°
argument of perigee: 111.0374°
revolutions per day: 14.34216710
mean anomaly at epoch: 292.0069°
orbit number at epoch: 87292

The dashed part of the orbit path shows where the satellite is in the earth's shadow,  

DLR